ROT704 LRIA-LROP

Flight info

Callsign ROT704
Flight time 0h 32m
Altitude 26000
Route ABOLO T74 DENAK
Aircraft A20N/M-SDE2E3FGHIRWXY/LB1

Departure

Time 2026-04-11 09:22
Airport Iaşi International Airport (LRIA)

Arrival

Time 2026-04-11 09:54
Airport Bucharest Henri Coandă International Airport (LROP)
Time Latitude Longitude Altitude Speed Heading
2026-04-11 08:56 47.17527 27.61976 355 ft 0 kts 273°
2026-04-11 09:14 47.17527 27.61979 355 ft 1 kts 273°
2026-04-11 09:14 47.17526 27.62001 355 ft 2 kts 273°
2026-04-11 09:14 47.17525 27.62023 354 ft 2 kts 279°
2026-04-11 09:15 47.17521 27.62044 353 ft 2 kts 291°
2026-04-11 09:15 47.17515 27.62064 353 ft 2 kts 302°
2026-04-11 09:15 47.17506 27.62082 352 ft 2 kts 313°
2026-04-11 09:15 47.17495 27.62096 352 ft 2 kts 323°
2026-04-11 09:16 47.17489 27.62103 351 ft 1 kts 330°
2026-04-11 09:16 47.17485 27.62106 351 ft 0 kts 329°
2026-04-11 09:17 47.17512 27.62083 353 ft 10 kts 333°
2026-04-11 09:18 47.17589 27.62027 356 ft 14 kts 334°
2026-04-11 09:18 47.17672 27.61967 360 ft 12 kts 334°
2026-04-11 09:18 47.17744 27.61925 363 ft 10 kts
2026-04-11 09:18 47.17787 27.62007 362 ft 11 kts 69°
2026-04-11 09:19 47.17823 27.62126 362 ft 13 kts 65°
2026-04-11 09:19 47.17891 27.62207 362 ft 13 kts 350°
2026-04-11 09:19 47.17983 27.62131 367 ft 19 kts 328°
2026-04-11 09:19 47.18118 27.62012 375 ft 25 kts 328°
2026-04-11 09:20 47.18265 27.61882 383 ft 22 kts 329°
2026-04-11 09:20 47.18389 27.61772 390 ft 18 kts 329°
2026-04-11 09:20 47.18498 27.61674 396 ft 22 kts 327°
2026-04-11 09:20 47.18598 27.61558 403 ft 5 kts 323°
2026-04-11 09:21 47.18591 27.61586 402 ft 7 kts 139°
2026-04-11 09:21 47.18451 27.61713 394 ft 61 kts 149°
2026-04-11 09:21 47.17837 27.62257 361 ft 141 kts 149°
2026-04-11 09:21 47.16884 27.63093 717 ft 171 kts 147°
2026-04-11 09:22 47.15827 27.63836 1650 ft 170 kts 166°
2026-04-11 09:22 47.14713 27.63776 2580 ft 167 kts 200°
2026-04-11 09:22 47.13831 27.62664 3198 ft 179 kts 241°
2026-04-11 09:22 47.13289 27.60905 3733 ft 199 kts 245°
2026-04-11 09:23 47.12636 27.58990 4270 ft 221 kts 241°
2026-04-11 09:23 47.11823 27.56992 4928 ft 240 kts 238°
2026-04-11 09:23 47.10867 27.54885 5599 ft 258 kts 236°
2026-04-11 09:23 47.09826 27.52726 6450 ft 267 kts 235°
2026-04-11 09:24 47.08733 27.50522 7483 ft 269 kts 235°
2026-04-11 09:24 47.07632 27.48328 8475 ft 272 kts 235°
2026-04-11 09:24 47.06518 27.46122 9435 ft 275 kts 235°
2026-04-11 09:24 47.05378 27.43872 10365 ft 278 kts 235°
2026-04-11 09:25 47.04213 27.41576 10999 ft 291 kts 235°
2026-04-11 09:25 47.02963 27.39116 11467 ft 309 kts 235°
2026-04-11 09:25 47.01638 27.36520 11895 ft 328 kts 234°
2026-04-11 09:25 47.00106 27.33949 12278 ft 347 kts 226°
2026-04-11 09:26 46.98275 27.31540 12617 ft 366 kts 219°
2026-04-11 09:26 46.96184 27.29276 12931 ft 384 kts 217°
2026-04-11 09:26 46.93962 27.26969 13253 ft 399 kts 216°
2026-04-11 09:26 46.91666 27.24595 13803 ft 407 kts 216°
2026-04-11 09:27 46.89350 27.22193 14470 ft 411 kts 216°
2026-04-11 09:27 46.87029 27.19781 15113 ft 415 kts 216°
2026-04-11 09:27 46.84677 27.17332 15754 ft 419 kts 216°
2026-04-11 09:27 46.82275 27.14828 16374 ft 423 kts 216°
2026-04-11 09:28 46.79884 27.12338 16971 ft 427 kts 216°
2026-04-11 09:28 46.77475 27.09834 17550 ft 430 kts 216°
2026-04-11 09:28 46.75015 27.07279 18113 ft 434 kts 216°
2026-04-11 09:28 46.72556 27.04730 18665 ft 437 kts 216°
2026-04-11 09:29 46.70071 27.02161 19196 ft 441 kts 216°
2026-04-11 09:29 46.67596 26.99603 19705 ft 444 kts 216°
2026-04-11 09:29 46.65074 26.97000 20204 ft 447 kts 216°
2026-04-11 09:29 46.62528 26.94373 20694 ft 451 kts 216°
2026-04-11 09:30 46.59964 26.91730 21164 ft 454 kts 216°
2026-04-11 09:30 46.57392 26.89083 21632 ft 458 kts 216°
2026-04-11 09:30 46.54796 26.86423 22080 ft 461 kts 216°
2026-04-11 09:30 46.52028 26.84075 22585 ft 464 kts 207°
2026-04-11 09:31 46.49054 26.82330 23270 ft 462 kts 199°
2026-04-11 09:31 46.45920 26.81185 23994 ft 460 kts 192°
2026-04-11 09:31 46.42805 26.80342 24646 ft 459 kts 191°
2026-04-11 09:31 46.39645 26.79534 25139 ft 461 kts 191°
2026-04-11 09:32 46.36505 26.78731 25536 ft 464 kts 191°
2026-04-11 09:32 46.33343 26.77910 25944 ft 467 kts 191°
2026-04-11 09:32 46.30136 26.77069 26080 ft 468 kts 192°
2026-04-11 09:32 46.26930 26.76224 26080 ft 468 kts 192°
2026-04-11 09:33 46.23753 26.75388 26078 ft 468 kts 192°
2026-04-11 09:33 46.20544 26.74544 26077 ft 468 kts 192°
2026-04-11 09:33 46.17356 26.73705 26077 ft 468 kts 191°
2026-04-11 09:33 46.14141 26.72860 26072 ft 468 kts 191°
2026-04-11 09:34 46.10955 26.72023 26068 ft 468 kts 191°
2026-04-11 09:34 46.07769 26.71188 26060 ft 468 kts 191°
2026-04-11 09:34 46.04569 26.70350 26058 ft 468 kts 191°
2026-04-11 09:34 46.01380 26.69516 26046 ft 468 kts 191°
2026-04-11 09:35 45.98171 26.68680 26044 ft 468 kts 191°
2026-04-11 09:35 45.94956 26.67844 26042 ft 468 kts 191°
2026-04-11 09:35 45.91749 26.67014 26037 ft 468 kts 191°
2026-04-11 09:35 45.88558 26.66187 26032 ft 468 kts 191°
2026-04-11 09:36 45.85329 26.65350 26028 ft 468 kts 192°
2026-04-11 09:36 45.82117 26.64518 26024 ft 468 kts 192°
2026-04-11 09:36 45.78953 26.63699 26019 ft 468 kts 191°
2026-04-11 09:36 45.75744 26.62868 26017 ft 468 kts 191°
2026-04-11 09:37 45.72561 26.62046 26014 ft 468 kts 191°
2026-04-11 09:37 45.69330 26.61211 26018 ft 468 kts 191°
2026-04-11 09:37 45.66139 26.60389 26015 ft 468 kts 191°
2026-04-11 09:37 45.62975 26.59574 26012 ft 468 kts 191°
2026-04-11 09:38 45.59762 26.58747 26021 ft 468 kts 191°
2026-04-11 09:38 45.56579 26.57928 26023 ft 467 kts 191°
2026-04-11 09:38 45.53383 26.57109 26018 ft 468 kts 191°
2026-04-11 09:38 45.50163 26.56284 26028 ft 468 kts 191°
2026-04-11 09:39 45.46991 26.55474 26025 ft 468 kts 191°
2026-04-11 09:39 45.43763 26.54651 26021 ft 468 kts 191°
2026-04-11 09:39 45.40591 26.53842 25601 ft 467 kts 191°
2026-04-11 09:39 45.37385 26.53023 25071 ft 465 kts 191°
2026-04-11 09:40 45.34246 26.52146 24503 ft 465 kts 196°
2026-04-11 09:40 45.31332 26.50267 23810 ft 460 kts 213°
2026-04-11 09:40 45.28752 26.47617 23140 ft 455 kts 219°
2026-04-11 09:40 45.26301 26.44871 22472 ft 450 kts 219°
2026-04-11 09:41 45.23848 26.42140 21785 ft 445 kts 219°
2026-04-11 09:41 45.21413 26.39496 21117 ft 441 kts 218°
2026-04-11 09:41 45.18998 26.36928 20456 ft 436 kts 217°
2026-04-11 09:41 45.16578 26.34395 19791 ft 432 kts 216°
2026-04-11 09:42 45.14176 26.31905 19132 ft 428 kts 216°
2026-04-11 09:42 45.11760 26.29415 18467 ft 424 kts 216°
2026-04-11 09:42 45.09415 26.27009 17825 ft 420 kts 216°
2026-04-11 09:43 45.04720 26.22206 16277 ft 415 kts 216°
2026-04-11 09:43 45.02390 26.19827 15492 ft 412 kts 216°
2026-04-11 09:43 45.00111 26.17502 14723 ft 409 kts 216°
2026-04-11 09:43 44.97826 26.15173 13946 ft 406 kts 216°
2026-04-11 09:44 44.95525 26.12831 13162 ft 400 kts 216°
2026-04-11 09:44 44.93356 26.10627 12404 ft 378 kts 217°
2026-04-11 09:44 44.91278 26.08517 11632 ft 357 kts 217°
2026-04-11 09:44 44.89322 26.06529 10861 ft 349 kts 217°
2026-04-11 09:45 44.87344 26.04520 10091 ft 350 kts 217°
2026-04-11 09:45 44.85383 26.02529 9319 ft 351 kts 216°
2026-04-11 09:45 44.83388 26.00505 8541 ft 353 kts 216°
2026-04-11 09:45 44.81410 25.98501 7778 ft 354 kts 216°
2026-04-11 09:46 44.79434 25.96503 7139 ft 350 kts 216°
2026-04-11 09:46 44.77464 25.94513 6488 ft 347 kts 216°
2026-04-11 09:46 44.75517 25.92550 5840 ft 344 kts 216°
2026-04-11 09:46 44.73589 25.90608 5207 ft 341 kts 215°
2026-04-11 09:47 44.71684 25.88688 4576 ft 338 kts 215°
2026-04-11 09:47 44.69788 25.86780 4118 ft 329 kts 215°
2026-04-11 09:47 44.68000 25.84983 3971 ft 302 kts 215°
2026-04-11 09:47 44.66353 25.83329 3967 ft 281 kts 215°
2026-04-11 09:48 44.64830 25.81819 3964 ft 263 kts 212°
2026-04-11 09:48 44.63176 25.81006 3955 ft 245 kts 182°
2026-04-11 09:48 44.61538 25.81238 3968 ft 228 kts 171°
2026-04-11 09:48 44.60029 25.81582 3965 ft 213 kts 171°
2026-04-11 09:49 44.58596 25.81902 3835 ft 207 kts 171°
2026-04-11 09:49 44.57148 25.82213 3372 ft 215 kts 171°
2026-04-11 09:49 44.55717 25.82752 2850 ft 217 kts 148°
2026-04-11 09:49 44.54818 25.84386 2506 ft 217 kts 104°
2026-04-11 09:50 44.54740 25.86423 2484 ft 202 kts 85°
2026-04-11 09:50 44.54936 25.88283 2536 ft 186 kts 82°
2026-04-11 09:50 44.55138 25.90076 2540 ft 185 kts 83°
2026-04-11 09:50 44.55300 25.91852 2342 ft 183 kts 84°
2026-04-11 09:51 44.55431 25.93548 2131 ft 167 kts 85°
2026-04-11 09:51 44.55545 25.95134 1923 ft 164 kts 85°
2026-04-11 09:51 44.55656 25.96707 1719 ft 158 kts 85°
2026-04-11 09:51 44.55764 25.98176 1515 ft 147 kts 85°
2026-04-11 09:52 44.55868 25.99600 1353 ft 146 kts 85°
2026-04-11 09:52 44.55972 26.01007 1188 ft 146 kts 85°
2026-04-11 09:52 44.56077 26.02416 1018 ft 145 kts 85°
2026-04-11 09:52 44.56180 26.03808 844 ft 144 kts 85°
2026-04-11 09:53 44.56284 26.05203 665 ft 143 kts 85°
2026-04-11 09:53 44.56387 26.06602 511 ft 142 kts 85°
2026-04-11 09:53 44.56495 26.07990 364 ft 143 kts 85°
2026-04-11 09:53 44.56599 26.09325 320 ft 123 kts 88°
2026-04-11 09:54 44.56660 26.10270 320 ft 74 kts 84°
2026-04-11 09:54 44.56699 26.10723 320 ft 18 kts 62°
2026-04-11 09:54 44.56786 26.10757 320 ft 8 kts 356°
2026-04-11 09:54 44.56850 26.10749 320 ft 9 kts 353°
2026-04-11 09:55 44.56939 26.10735 320 ft 17 kts 353°
2026-04-11 09:55 44.57035 26.10641 320 ft 18 kts 302°
2026-04-11 09:55 44.57067 26.10457 320 ft 20 kts 264°
2026-04-11 09:55 44.57050 26.10261 320 ft 20 kts 262°
2026-04-11 09:56 44.57035 26.10055 320 ft 23 kts 264°
2026-04-11 09:56 44.57015 26.09816 320 ft 25 kts 264°
2026-04-11 09:56 44.56996 26.09569 320 ft 25 kts 264°
2026-04-11 09:56 44.56977 26.09322 320 ft 26 kts 263°
2026-04-11 09:57 44.56958 26.09072 320 ft 25 kts 264°
2026-04-11 09:57 44.56940 26.08832 320 ft 24 kts 263°
2026-04-11 09:57 44.56924 26.08621 320 ft 19 kts 262°
2026-04-11 09:57 44.56895 26.08457 320 ft 13 kts 272°
2026-04-11 09:58 44.56950 26.08351 320 ft 14 kts 287°
2026-04-11 09:58 44.56945 26.08212 320 ft 14 kts 263°
2026-04-11 09:58 44.56956 26.08138 320 ft 7 kts 343°
2026-04-11 09:58 44.57008 26.08132 320 ft 4 kts 354°
2026-04-11 09:59 44.57023 26.08130 320 ft 0 kts 354°